Погода Атырау

Хотите узнать прогноз погоды в Атырау? Тогда Вам сюда: Погода в Атырау

Поиск расширенной информации на нашем сайте:

Полезная информация:

Новости сайта



02.01.2020
Опубликован Долгосрочный прогноз погоды по городам России и ближнего зарубежья на январь 2020 года.
Карты: Прогноз на январь и февраль 2020 года, Сравнение прогнозируемой аномалии приземной температуры воздуха на январь 2020 года по разным моделям.




Погода Атырау - сегодня

Время (UTC), дата Ветер
(°,м/с) 
Видим.   Явления Облачность Т
(°С)
Тd
(°С)
f(%) Тe
(°С)
Pmin
(гПа)
dP
(гПа)
Po
(мм)
O2
(г/м3)
Тmin Tmax R s Состояние
почвы
12 22.10.21 240 (ЮЗ) 20000 м    3/0 верхняя 
[Cs]
+14.8 +9.2 69 +14  1022.2  -0.4  768  292           
15 22.10.21 230 (ЮЗ) 20000 м    3/0 верхняя 
[Cs]
+11.6 +9 84 +10  1021.7  -0.5  768  295    +15.6       
18 22.10.21 210 (ЮЗ) 20000 м    ясно 
+11 +8.8 86 +11  1021.5  -0.2  768  296    +15.6       
21 22.10.21 240 (ЮЗ) 20000 м    10/0 верхняя 
[Cs]
+13.2 +11.1 87 +15  1021.5  768  293           
00 23.10.21 210 (ЮЗ) 20000 м    10/0 средняя, верхняя 
[Ac As|Cs]
+12.8 +11.1 89 +15  1022  0.5  768  294           
03 23.10.21 220 (ЮЗ) 20000 м    10/10 600 м 
[Frnb]
+12.3 +10.7 90 +14  1022.1  0.1  768  294           
06 23.10.21 190 (Ю) 20000 м    4/4 600 м 
[Cu hum]
+14.6 +10.6 77 +15  1022.5  0.4  769  292  +10.9         
09 23.10.21 210 (ЮЗ) 20000 м    8/8 600 м 
[Cu hum]
+16.8 +8.6 58 +17  1022.2  -0.4  768  290           
12 23.10.21 210 (ЮЗ) 20000 м    ясно 
+16.6 +6.7 52 +17  1021.6  -0.6  768  291           
15 23.10.21 160 (Ю) 20000 м    ясно 
+12.5 +4.3 57 +13  1021.6  -0.2  768  295    +17.7       
18 23.10.21 тихо ()   20000 м    ясно 
+11.7 +2.5 53 +12  1020.8  -0.5  767  296    +17.7       
21 23.10.21 тихо ()   20000 м    ясно 
+8 +2.9 70 +8  1019.9  -0.9  767  300           
00 24.10.21 тихо ()   20000 м    ясно 
+5.3 +2.9 84 +5  1019.1  -0.7  766  302           
03 24.10.21 тихо ()   20000 м    ясно 
+6.5 +4.4 86 +7  1018.6  -0.6  766  301           
06 24.10.21 тихо ()   20000 м    ясно верхняя 
[Ci]
+12.8 +5.8 62 +13  1018.7  0.1  766  294  +4.9         
09 24.10.21 240 (ЮЗ) 20000 м    6/0 верхняя 
[Ci]
+19.5 +3.4 34 +21  1017.9  -0.9  765  287           
12 24.10.21 260 (З) 20000 м    8/0 верхняя 
[Ci]
+19.2 +3 34 +20  1017  -0.9  764  287           
15 24.10.21 тихо ()   20000 м    8/0 средняя, верхняя 
[As op|Ci]
+12.7 +5.6 62 +13  1016.9  764  293    +21.3       
18 24.10.21 тихо ()   20000 м    10/0 средняя, верхняя 
[Ac As|Cs]
+11 +7.3 78 +11  1016.3  -0.6  764  295    +21.3       
21 24.10.21 340 (С) 20000 м    10/0 верхняя 
[Cs]
+10.6 +8.5 87 +12  1015.5  -0.8  763  295           
00 25.10.21 060 (СВ) 20000 м    10/0 верхняя 
[Cs]
+9.6 +7.1 84 +10  1015.2  -0.3  763  296           
03 25.10.21 040 (СВ) 20000 м    10/10 600 м кучево-дожд. 
[Cb cap|Ac As]
+11 +7.7 80 +10  1015.6  0.4  763  294           
06 25.10.21 070 (В) 20000 м    10/10 600 м кучево-дожд. 
[Cb cap]
+10.6 +5.9 73 +10  1017.2  1.6  765  296  +8.7         
09 25.10.21 050 (СВ) 20000 м    8/8 600 м кучево-дожд., средняя 
[Cb cap|Ac trans]
+12.2 +5 61 +11  1017.7  0.5  765  294           
12 25.10.21 030 (СВ) 20000 м    8/3 600 м средняя 
[Sc diur, vesp|Ac cuf]
+12.4 +0.6 44 +11  1018.7  766  295           
Время (UTC), дата Ветер
(°,м/с) 
Видим.   Явления Облачность Т
(°С)
Тd
(°С)
f(%) Тe
(°С)
Pmin
(гПа)
dP
(гПа)
Po
(мм)
O2
(г/м3)
Тmin Tmax R s Состояние
почвы

Для получения пояснительной информации подведите курсор к названию столбца.

ПОГОДА Атырау - архив

Всё, что Вы хотите узнать о погоде Атырау - удобно и подробно!

Выберите нужную дату (начиная с 1 января 2019* года) и нажмите кнопку "Найти".
Будут отображены архивные сводки погоды по пункту Атырау, начиная с указанной даты.


Отображать данные в формате CSV (для использования в таблицах Excel)


Внимание! Наш архив погоды предназначен исключительно для личного некоммерческого использования в познавательных целях. Если Вам необходимы официальные справки о состоянии погоды (для производственных, юридических, коммерческих и т.п. целей), обращайтесь в органы Росгидромета.

*Примечание: данная дата относится к архиву по метеостанциям СССР (Россия, СНГ, Балтия).
Архив по метеостанциям Зарубежной Европы и Азии (кроме Китая) хранится 10 дней, по другим регионам земного шара (Китай, Африка, Америка, Австралия, Океания) - 1 день.

Атырау - район местоположения метеостанции


Название, широта, долгота, высота метеостанции:
Атырау (город) 47.1°ш. 51.7°д. -23 м над ур. моря [Казахстан]

Дополнительная информация

В oтличие oт бoльшинства пoгoдных сайтoв мы публикуем пoдрoбную метеoинфoрмацию в детальнoм прoфессиoнальнoм фoрмате.

Характеристики температуры и влажнoсти вoздуха измеряются на высoте 2 м в тени вдали oт зданий и деревьев.
Скoрoсть ветра измеряется на высoте 10 м (на урoвне рoста челoвека скoрoсть ветра ниже в 1.5-2 раза). Если метеoстанция нахoдится в гoрoде или в лесу, тo скoрoсть ветра занижена на 2-4 м/с пo сравнению с oткрытым местoм. Скoрoсть ветра над акватoриями крупных рек и oзёр, а также на вершинах хoлмoв на 2-5 м/с выше, чем в oбычных услoвиях.
Атмoсфернoе давление в разных тoчках местнoсти мoжет значительнo oтличаться oт давления на метеoстанции, в зависимoсти oт услoвий рельефа (при пoдъёме на 10 м давление пoнижается примернo на 1 мм рт.ст.).